Theta_e
348 344 342 339 335 337 335 335 332 323 322 326 326 326 330 332 333 333 332 330 325 321 320 321 322 320 315 311 311 311 311 311 312 315 319 323 324 326 328 329 332 334 336 337 337 337 338 338 337 337 336 336 336 336 336 336 336 336 336 337 337 336 336 336 336 336 336 335 335 335 335 335 335 335 334 333 332 330 329 328 328 325 323 323 318
348 344 342 338 336 337 335 335 330 320 320 324 323 324 327 330 331 331 330 325 321 318 318 318 316 314 311 310 311 311 311 311 312 313 316 321 323 325 327 330 333 336 337 337 337 338 337 337 337 337 336 336 336 336 336 336 336 336 337 337 336 336 336 336 335 335 335 335 335 335 335 335 335 335 333 332 331 328 327 327 326 323 322 323 317
347 344 342 338 336 336 335 335 327 317 317 320 320 321 323 325 326 325 323 320 318 316 315 313 312 311 310 311 311 310 311 312 312 312 314 318 322 324 327 330 334 336 337 338 338 338 337 337 336 336 337 337 336 337 337 337 337 337 336 337 336 336 336 336 336 335 336 336 335 335 335 334 334 333 332 331 328 323 323 323 322 318 316 317 313
346 344 342 337 336 336 335 334 323 314 316 317 318 319 320 320 320 319 318 317 316 313 312 311 311 311 310 311 311 310 311 312 312 313 313 315 320 323 326 329 333 336 337 337 338 338 337 337 337 337 337 337 337 337 337 337 337 336 336 336 335 335 335 335 336 336 336 336 335 334 333 333 332 331 329 326 321 317 317 316 314 313 313 313 311
346 344 342 337 336 335 335 333 320 313 315 315 316 317 317 317 317 317 316 315 313 311 311 310 311 310 310 311 311 311 311 312 312 313 312 314 318 321 325 329 332 335 336 337 338 337 338 337 338 338 338 337 337 337 336 336 335 334 333 332 332 332 331 331 330 330 330 330 331 329 329 329 328 327 322 319 317 313 312 312 311 311 311 310 308
345 344 341 336 336 335 335 331 318 314 315 315 316 315 316 316 315 315 314 313 312 311 311 311 311 310 310 311 311 311 311 311 312 312 313 314 316 320 324 328 332 334 335 336 337 337 338 338 337 337 337 337 336 335 335 334 334 332 330 328 329 329 328 325 321 319 318 319 320 321 324 325 324 322 317 313 314 312 311 310 310 310 310 309 310
345 343 339 336 336 334 335 331 317 314 316 315 315 315 315 315 314 313 313 313 312 311 311 311 310 310 310 311 311 312 312 311 312 312 313 314 315 321 324 328 331 332 335 336 337 337 337 337 336 336 336 335 335 335 334 334 331 327 323 322 321 320 319 315 313 311 311 311 312 315 320 323 321 318 313 311 314 315 314 311 309 310 313 314 315
345 342 338 336 336 334 335 331 318 314 316 315 314 314 315 315 314 313 313 313 312 311 310 311 310 310 310 311 312 312 313 312 312 312 313 313 316 321 324 329 330 332 334 335 336 336 335 335 334 334 334 333 333 333 332 332 327 320 317 316 314 313 311 310 309 308 309 308 309 310 313 320 322 319 314 313 317 316 313 310 309 310 313 314 313
345 341 337 336 336 334 335 332 321 316 316 315 315 314 315 315 315 314 314 313 312 311 311 311 310 310 310 311 312 312 314 313 312 312 312 313 315 317 321 326 328 330 330 330 331 332 331 331 331 331 330 329 329 327 325 325 321 316 314 312 311 310 309 309 308 308 309 308 309 308 312 320 320 315 312 310 312 311 309 309 309 309 309 309 308
343 339 337 336 335 334 335 333 325 318 317 317 316 314 315 316 316 315 314 314 313 312 312 311 311 311 310 311 311 312 314 314 313 312 312 312 313 315 318 321 324 326 326 326 327 327 327 328 328 328 327 326 325 320 316 317 315 313 312 311 310 309 309 309 309 309 309 309 309 309 314 322 320 313 309 308 309 311 311 311 312 311 310 309 308
341 338 337 336 335 335 335 334 329 322 320 319 318 315 314 315 315 315 315 315 314 313 312 312 312 311 311 311 312 313 314 314 314 313 312 312 313 315 317 319 321 323 324 325 325 325 325 326 326 325 325 323 320 316 313 314 312 312 311 310 309 309 309 308 309 308 309 310 309 312 317 322 325 321 314 312 313 313 314 315 316 317 318 317 316
339 338 337 336 336 335 335 335 333 327 323 321 319 316 314 314 314 315 315 314 314 314 313 313 312 312 312 312 314 317 317 316 315 313 312 311 312 315 318 320 321 323 324 324 323 323 323 323 322 321 320 319 316 314 314 313 311 310 309 309 309 309 309 308 309 309 310 309 311 320 325 326 328 325 322 321 319 317 318 319 319 320 321 321 320
339 338 337 337 336 336 336 336 335 331 326 323 320 319 316 314 313 313 314 314 314 314 314 314 313 312 312 313 316 319 318 317 315 313 312 311 312 314 318 321 322 323 324 323 323 322 320 320 318 318 318 317 316 315 313 311 309 309 309 309 309 309 309 309 309 309 310 309 317 325 326 327 327 324 324 323 319 316 316 316 316 315 315 316 315
340 338 337 338 337 336 336 336 335 334 330 325 321 321 321 319 316 314 313 313 312 313 314 313 313 313 313 313 315 317 316 315 314 313 312 311 312 314 317 320 322 323 324 324 323 321 320 319 319 319 319 318 317 315 313 310 309 309 309 310 310 310 310 310 310 311 310 311 322 327 325 323 322 319 318 316 314 313 312 311 311 311 312 311 311
342 339 338 338 338 337 336 336 336 336 334 330 324 322 324 324 321 318 316 314 313 313 313 313 313 312 313 313 314 315 315 314 314 313 313 311 312 313 316 319 321 322 324 324 323 321 320 320 321 320 320 320 318 316 314 311 310 309 309 310 310 310 310 311 311 312 312 312 320 324 322 318 314 315 314 311 311 311 310 311 311 311 311 310 311
342 340 339 338 339 339 336 337 337 336 336 334 329 323 324 326 326 323 322 320 319 319 318 317 316 315 314 313 314 314 315 319 317 314 314 312 311 313 315 319 321 321 323 324 323 322 320 321 322 322 322 321 319 317 316 313 310 309 310 310 310 310 310 311 311 312 312 312 315 317 317 313 312 313 312 311 311 311 311 311 311 311 311 310 310
343 341 339 338 339 339 337 338 337 336 337 336 334 328 324 325 328 328 326 326 325 325 325 324 323 321 318 314 315 314 318 325 320 315 315 313 312 311 314 317 320 321 322 322 323 323 321 321 322 323 323 322 322 320 318 315 312 310 310 310 310 310 310 311 311 311 311 312 313 313 312 311 311 311 311 311 311 311 311 311 311 311 311 310 310
344 342 339 337 337 338 338 338 337 337 337 337 336 333 328 325 328 330 329 328 328 329 328 328 327 325 322 318 316 314 322 327 320 317 317 315 313 311 312 315 319 321 321 321 322 323 322 321 322 323 323 323 323 322 320 317 314 311 310 310 310 310 309 310 310 310 311 311 311 311 311 311 310 310 310 310 310 310 310 310 310 310 310 310 310
342 341 339 337 334 335 338 339 338 338 338 338 337 336 334 329 327 329 331 330 330 331 330 329 328 326 324 320 317 319 328 328 322 320 319 318 316 312 311 313 317 320 321 321 321 322 323 322 322 324 325 324 324 324 322 319 317 314 312 310 310 309 309 308 309 308 309 309 309 310 310 309 309 309 309 309 309 309 309 309 309 309 309 309 309
340 340 339 337 334 334 337 338 338 339 339 338 338 337 337 334 330 327 329 331 331 332 331 330 328 327 325 323 324 328 333 332 327 324 321 321 320 316 312 310 314 319 321 321 322 322 322 323 322 324 326 325 325 325 323 321 320 318 316 314 312 311 310 309 309 308 309 308 308 308 308 308 308 308 308 308 307 307 307 308 308 308 307 308 308
339 338 338 337 336 336 336 335 336 337 338 339 339 338 338 338 335 330 328 330 332 332 333 331 329 328 326 328 332 335 334 334 332 329 324 323 323 321 315 311 311 316 321 321 322 323 322 324 323 324 326 326 325 325 323 323 321 320 319 318 317 316 314 312 311 310 310 309 308 308 308 308 308 308 308 308 308 308 307 307 307 307 307 307 307
337 337 337 337 336 336 336 334 333 334 337 338 339 339 338 339 338 335 330 329 330 332 334 332 330 330 329 332 335 335 335 334 333 332 328 324 324 323 319 314 310 311 318 321 321 322 322 323 324 325 326 325 325 325 323 323 322 320 320 321 321 320 318 316 314 313 312 311 310 309 309 309 309 309 309 309 309 309 308 308 307 307 307 307 307
334 335 335 335 334 334 335 335 333 332 334 337 338 338 339 340 339 338 334 331 331 332 334 333 331 331 331 334 334 333 334 334 334 334 331 326 326 326 323 318 313 309 314 320 321 321 321 323 324 326 326 325 324 325 324 323 321 321 321 323 324 323 321 319 317 316 315 315 313 312 311 310 310 310 310 310 309 309 308 308 308 307 307 307 307
332 332 331 331 332 334 334 333 332 331 331 334 337 338 339 340 339 339 337 334 333 333 333 333 332 332 332 334 334 333 332 332 333 334 332 329 327 328 327 321 316 311 311 318 322 321 321 323 324 326 327 326 324 325 325 323 321 321 322 324 325 325 323 322 321 320 319 318 317 315 313 312 311 310 310 310 309 309 309 308 308 308 307 308 308
332 332 330 327 329 333 333 332 331 330 330 333 336 338 338 339 339 339 338 337 335 334 333 333 333 332 332 333 333 333 331 331 332 333 333 332 329 329 329 325 320 314 310 316 323 323 322 323 325 327 328 327 325 325 325 325 322 320 322 324 325 325 325 324 323 322 321 321 320 318 316 314 312 311 310 309 309 309 309 308 308 308 308 308 308
333 331 329 326 326 330 331 332 332 331 330 333 336 337 338 338 339 339 338 337 336 334 334 334 334 334 333 333 334 334 332 331 331 333 334 333 331 331 331 328 323 317 313 315 322 325 324 324 326 327 328 327 326 325 325 326 324 322 322 324 325 325 326 326 325 325 324 322 321 320 319 316 313 311 310 309 309 309 309 309 308 309 309 310 310
333 330 328 326 325 328 330 333 334 333 332 334 335 337 338 338 339 339 338 338 337 336 335 334 334 333 333 333 333 333 332 332 332 332 333 333 332 330 330 329 325 321 316 315 321 325 325 326 327 328 329 328 326 324 325 326 325 324 324 324 326 326 327 327 327 326 325 324 323 321 320 317 314 311 310 309 309 309 309 310 310 311 311 312 312
333 330 330 327 326 327 330 334 335 334 334 334 335 336 337 337 338 338 338 337 337 337 335 335 334 333 333 332 333 333 332 332 332 331 332 332 332 330 328 328 327 324 320 317 320 324 327 327 328 329 329 329 328 326 326 326 326 326 326 326 327 327 328 328 327 327 326 325 323 321 320 317 312 310 310 310 310 311 312 312 313 313 314 315 315
336 333 332 329 326 330 334 336 335 335 334 333 334 335 335 336 337 337 337 337 336 336 336 335 334 333 332 332 333 333 332 333 332 332 333 333 332 330 326 326 327 326 324 321 320 323 328 329 329 330 330 329 329 328 328 328 327 328 329 328 328 328 328 329 328 327 326 325 323 321 319 315 311 310 312 313 314 315 316 316 316 317 317 318 319
338 333 329 328 326 329 334 335 334 333 332 331 332 332 333 334 335 336 336 335 335 335 335 334 334 333 332 332 333 334 333 333 333 333 333 333 333 330 326 325 326 326 326 325 323 322 327 330 330 330 330 329 330 330 330 330 329 329 329 329 329 329 329 329 329 328 326 325 323 319 317 315 312 312 315 318 318 319 320 321 321 321 321 321 321
337 333 327 327 328 327 329 330 329 329 328 329 331 331 331 331 332 334 333 333 333 333 333 333 332 332 331 332 333 333 333 333 333 333 332 332 332 330 328 327 326 325 325 327 326 322 324 328 330 330 330 330 330 330 330 330 329 329 329 329 330 330 330 329 329 328 326 325 322 318 316 315 314 315 318 320 320 323 325 326 325 324 323 323 322
336 332 328 328 329 328 328 327 326 327 327 328 330 330 328 326 326 328 329 330 329 330 331 331 332 331 331 331 332 332 333 333 332 332 331 331 332 331 330 328 327 325 324 326 328 325 322 324 329 330 329 330 330 330 331 330 329 329 329 329 329 330 330 329 329 328 326 324 320 317 315 315 317 317 317 320 323 326 328 329 328 327 327 326 325
335 331 329 328 329 328 328 328 327 327 327 328 329 328 326 324 323 323 325 326 326 328 330 331 331 331 330 330 331 331 331 332 332 331 331 331 331 332 331 329 328 327 324 325 327 328 324 322 326 329 329 330 330 330 331 330 329 329 329 329 329 329 329 329 329 328 327 324 319 316 314 315 320 320 319 322 326 328 328 328 329 329 329 329 328
334 331 330 328 328 328 328 328 328 328 329 329 329 328 327 326 325 324 324 324 324 326 328 329 330 329 329 329 329 329 329 330 331 331 331 331 331 332 332 329 328 329 326 324 326 329 327 323 324 327 329 330 330 331 331 330 329 329 329 329 329 329 329 329 329 328 327 323 318 316 314 315 320 323 323 324 326 327 327 328 328 329 329 329 329
334 330 329 328 328 328 328 328 328 328 329 330 329 329 329 328 326 325 324 324 324 324 326 328 329 329 329 328 328 329 328 328 330 331 331 330 331 331 332 330 329 329 327 324 325 328 329 326 324 325 328 330 330 331 331 330 329 329 329 329 330 330 329 329 329 329 327 322 317 316 316 316 320 322 323 324 324 325 327 327 327 328 328 328 328
336 332 328 327 327 327 327 327 327 327 328 329 329 329 329 329 329 327 325 325 325 325 325 326 327 328 327 326 327 327 327 327 329 330 331 330 330 331 332 331 330 329 328 324 322 326 329 328 326 326 328 329 330 330 330 330 330 329 329 329 330 330 329 329 329 329 328 323 318 318 320 321 322 322 324 325 325 326 327 327 326 326 326 327 327
338 335 332 329 330 330 329 328 327 326 326 327 328 328 329 330 331 330 328 326 326 326 326 326 326 327 327 326 327 327 325 326 327 329 330 330 330 330 330 331 330 329 329 324 321 325 328 329 328 327 327 329 329 329 329 329 330 329 329 329 330 330 329 329 329 329 328 324 319 320 323 324 325 325 325 326 326 326 326 325 324 324 324 325 326
339 337 336 335 334 335 333 331 330 329 328 327 328 328 328 329 331 332 331 330 329 328 327 328 328 328 328 327 328 328 327 327 328 328 329 330 330 330 330 331 331 330 330 326 321 324 328 329 329 327 327 328 327 328 328 329 330 329 329 329 330 330 330 329 329 329 328 323 320 322 324 325 326 326 326 326 325 324 323 322 321 321 321 322 324
341 340 339 338 337 337 337 336 335 334 333 332 331 330 328 329 330 332 333 333 332 331 330 329 330 331 331 329 329 329 329 330 330 329 329 330 330 330 330 330 331 330 330 328 323 323 328 330 329 329 329 328 327 328 329 329 329 329 329 329 330 330 330 330 329 330 328 323 321 323 324 326 326 326 326 324 323 322 321 321 320 319 319 320 322
342 341 340 340 339 338 338 338 337 337 337 336 334 334 332 332 332 332 333 334 334 334 333 331 330 332 332 332 332 331 331 332 331 331 331 330 331 331 330 330 331 331 330 329 325 323 327 330 329 329 329 328 327 328 329 329 329 329 329 329 330 330 329 329 329 329 327 324 324 325 325 326 326 326 325 323 322 321 319 319 318 317 318 320 323
341 340 339 338 338 337 338 338 338 337 337 336 335 335 335 335 335 334 335 335 335 335 334 334 333 333 332 333 333 332 332 333 332 332 332 332 332 332 331 330 330 331 330 329 327 323 324 328 329 329 329 329 328 327 328 329 330 330 330 330 330 329 329 329 329 329 327 325 325 326 326 326 326 326 325 323 322 321 319 318 317 317 318 320 322
341 339 338 337 337 336 336 336 336 335 335 335 335 335 335 335 335 335 336 336 336 335 334 335 334 333 333 332 332 332 332 332 333 333 333 332 332 332 332 331 330 331 330 329 328 326 324 327 329 328 327 328 328 328 328 329 330 330 330 330 329 329 329 329 330 329 327 326 326 326 326 326 326 326 324 323 323 322 321 319 318 319 318 319 321
340 339 338 338 336 336 336 336 336 335 335 335 334 334 334 335 335 334 335 335 334 334 335 335 334 333 333 333 332 332 332 332 333 333 332 332 332 332 332 332 331 331 331 329 328 328 326 328 329 328 328 327 327 329 329 329 329 329 330 330 329 328 328 329 330 329 327 327 327 326 326 326 326 325 324 324 324 324 323 319 317 318 317 317 320
340 340 339 337 336 336 335 335 335 335 336 336 335 335 335 334 335 334 333 333 334 334 335 334 333 333 332 332 332 333 334 333 333 331 330 331 331 331 331 332 332 331 331 330 328 327 327 328 330 329 328 328 328 329 330 330 330 329 330 329 329 328 328 328 329 328 328 327 327 327 327 327 326 324 324 324 325 325 322 318 316 316 316 316 319
340 339 337 335 335 335 335 335 334 334 335 336 335 334 334 335 335 335 334 334 333 333 333 331 329 328 328 329 330 332 333 332 333 332 330 330 330 331 331 331 331 330 330 330 328 328 328 329 329 327 326 327 329 330 330 330 330 330 329 329 328 329 329 328 328 328 328 327 327 327 327 327 326 324 324 325 325 325 321 317 317 317 316 315 317
339 337 335 333 334 334 334 334 334 334 334 334 334 334 334 335 335 335 334 332 332 332 331 329 327 326 327 327 328 329 331 331 332 332 331 330 330 331 330 328 330 330 331 331 330 330 328 328 327 326 326 327 328 329 330 329 330 330 329 329 328 328 328 328 328 328 327 327 328 327 327 327 326 324 324 325 326 324 320 318 319 318 315 314 314
336 335 334 333 333 334 333 334 333 334 334 333 333 335 335 335 335 335 332 329 330 331 331 330 328 327 327 328 328 329 330 330 331 331 331 331 330 330 327 326 328 330 331 331 330 329 327 327 326 325 326 327 327 328 329 330 329 329 329 329 329 327 327 327 328 328 328 328 328 328 328 327 327 325 325 325 326 324 321 320 321 320 317 315 313
334 333 333 333 332 332 332 333 333 333 333 333 334 335 335 335 334 333 331 329 330 332 333 333 330 328 327 326 327 328 329 330 330 331 331 331 331 329 326 325 327 329 330 329 328 327 326 326 325 325 326 327 326 326 327 329 329 329 329 329 329 328 326 326 327 328 328 328 328 327 328 327 327 326 326 326 326 324 322 321 322 321 319 316 312
333 332 332 332 331 331 331 331 331 332 333 333 333 333 334 334 333 331 329 329 331 332 332 330 330 329 327 325 326 327 328 329 330 330 331 331 331 329 325 325 327 327 328 327 326 326 326 325 324 324 326 327 326 326 327 328 329 329 329 329 329 328 327 326 326 327 327 328 327 327 327 326 327 327 326 326 326 324 322 321 321 321 320 316 310
331 331 331 331 331 331 331 330 331 332 332 332 333 333 334 334 333 331 329 328 331 332 329 326 327 328 327 327 328 328 328 329 330 330 331 330 330 329 325 326 327 326 327 327 327 327 325 323 323 325 326 327 327 327 328 329 329 329 329 329 329 328 327 326 326 326 326 326 327 326 326 326 327 327 326 326 324 323 322 321 320 320 319 316 309
330 330 330 330 331 331 331 331 331 331 332 332 332 332 332 332 332 332 330 329 331 332 331 328 327 328 329 329 331 331 329 329 330 330 330 329 330 329 327 326 326 326 327 328 328 328 326 324 324 325 327 328 328 328 329 329 329 330 329 329 329 328 328 327 327 327 326 326 326 326 326 327 327 327 326 324 322 322 322 320 319 318 317 315 309
Wind_Speed
22 22 21 20 19 18 16 15 14 14 15 17 18 18 19 18 17 15 14 12 10 9 9 8 8 7 7 8 9 10 11 13 15 17 18 20 21 22 23 23 23 21 19 18 17 17 18 18 18 19 19 18 17 17 17 16 17 17 16 16 16 16 16 16 16 16 16 16 15 15 13 13 14 14 15 14 13 13 12 12 12 13 13 12 10
24 22 22 21 20 18 16 15 14 14 16 17 18 19 19 18 17 15 14 12 11 10 10 9 9 9 9 9 10 10 11 12 15 16 17 19 20 21 23 24 23 21 20 19 19 18 18 19 19 19 19 19 18 18 17 17 17 17 17 16 16 16 16 16 16 15 16 16 16 15 15 15 14 14 13 12 11 11 11 11 11 11 12 11 11
24 23 23 22 20 18 16 15 13 14 16 17 19 19 19 18 17 16 14 13 12 12 11 10 10 10 10 10 10 10 11 13 14 16 16 18 19 21 23 24 24 22 21 21 19 19 19 19 20 20 20 19 19 18 18 18 17 16 16 16 15 15 15 15 15 15 15 16 16 16 15 14 13 12 11 9 9 9 9 9 9 8 9 8 8
25 25 24 23 20 18 17 15 14 15 17 18 19 19 19 18 17 16 15 14 14 13 12 12 11 11 11 11 11 11 12 13 14 15 15 17 18 20 22 23 24 23 22 21 20 20 20 20 21 21 20 19 18 18 18 17 16 16 16 15 15 14 13 13 13 13 13 13 14 13 13 12 12 11 9 7 6 7 6 6 5 6 6 5 6
26 26 25 23 21 19 18 15 14 16 17 17 18 18 18 17 17 16 16 16 14 13 13 13 12 12 12 12 11 11 12 13 13 14 14 16 17 20 22 22 23 23 22 21 20 20 21 20 20 20 19 18 18 17 16 16 15 15 14 13 12 12 11 10 9 9 9 9 8 8 9 9 9 8 5 3 3 4 4 5 5 6 6 7 8
26 27 25 23 21 20 18 15 14 16 17 17 16 16 17 17 17 17 17 16 14 14 14 13 13 12 12 12 12 11 12 12 13 14 14 15 16 18 21 21 22 22 22 20 20 20 20 19 18 17 17 17 16 15 15 14 14 13 12 11 11 9 8 7 6 6 6 6 4 5 7 7 6 5 3 3 4 5 6 7 8 9 11 13 13
26 26 25 23 21 20 18 15 15 16 16 16 15 15 16 17 17 17 16 15 14 14 14 13 12 13 13 12 12 11 11 12 12 13 14 15 15 17 19 20 21 21 21 20 19 19 19 18 16 15 15 15 15 14 13 13 13 12 11 11 10 9 8 7 7 7 7 6 5 5 6 7 7 7 7 8 9 10 12 13 14 14 17 17 17
25 26 25 23 21 20 19 16 15 16 16 15 13 14 15 16 16 16 15 14 13 14 14 13 13 13 13 13 12 11 11 11 12 13 13 15 14 15 17 18 19 20 19 19 18 17 17 15 14 15 15 14 13 13 13 12 12 11 11 10 10 9 9 9 9 10 10 9 9 8 8 9 10 11 13 14 14 15 17 17 17 17 19 19 19
25 26 26 24 22 20 19 16 15 16 15 14 12 12 14 15 14 14 14 13 13 13 13 13 13 13 13 13 13 12 11 11 12 12 12 13 14 14 16 17 18 18 17 17 17 15 15 14 14 14 14 13 12 12 13 13 12 11 10 10 10 11 11 11 11 11 11 11 12 12 11 12 13 16 16 15 16 18 18 18 18 19 20 20 19
25 26 25 24 22 20 20 17 15 15 15 13 12 11 12 14 13 13 13 13 12 13 13 13 13 13 12 12 12 12 11 11 11 12 12 12 13 14 15 16 16 16 16 16 15 14 13 14 14 13 12 12 12 13 14 13 12 11 10 11 12 12 13 12 13 12 12 12 13 14 14 15 15 17 17 16 17 18 19 19 19 20 20 20 20
24 24 24 23 21 20 20 18 16 15 14 13 12 10 11 12 13 12 12 12 12 12 12 12 12 12 12 11 11 11 11 11 10 11 12 12 12 13 14 14 15 15 15 15 14 13 13 13 13 12 12 12 13 14 14 13 12 12 12 13 14 14 14 14 14 14 14 14 15 16 15 16 15 16 17 17 18 19 19 19 19 19 19 19 19
23 23 23 22 21 20 19 19 17 15 14 13 12 11 10 11 12 12 11 11 11 11 11 12 11 11 11 11 10 11 11 10 10 11 12 12 12 13 13 14 14 14 14 15 14 13 14 14 14 14 15 15 14 15 15 14 14 14 15 15 16 16 16 15 14 14 15 15 15 15 14 15 16 17 18 18 20 20 20 19 19 19 19 19 19
22 23 23 22 21 20 19 18 17 15 14 13 12 11 11 11 11 11 11 11 10 10 10 11 11 11 11 11 10 11 11 11 10 10 11 11 11 12 13 14 14 13 13 13 13 14 16 17 17 17 17 16 15 16 16 16 17 17 18 18 18 17 17 17 16 16 16 15 14 14 14 15 16 18 18 18 19 20 20 19 19 19 19 19 19
21 22 22 22 21 21 19 18 17 15 13 12 12 11 11 11 11 11 11 10 9 9 9 9 10 10 11 11 10 10 11 11 10 9 10 10 11 12 13 14 13 12 12 12 11 13 17 19 18 17 17 16 16 17 17 18 18 18 19 19 19 18 17 17 17 16 16 15 14 14 15 15 17 18 18 19 19 19 19 18 19 18 18 18 18
23 23 23 22 20 20 19 17 17 15 13 12 11 11 11 11 11 11 11 10 9 9 8 8 9 9 9 9 9 9 10 10 11 10 10 10 10 11 12 13 13 12 11 11 10 12 17 18 17 17 16 15 15 17 18 18 18 18 18 19 19 19 18 18 17 15 14 15 15 14 15 17 18 18 19 19 18 18 17 17 17 17 16 16 16
22 23 22 22 19 19 19 17 17 16 15 13 12 11 11 11 11 11 10 10 9 9 8 8 7 7 7 7 8 9 10 10 11 11 10 10 10 11 12 13 13 11 10 9 9 9 13 16 16 15 14 14 15 16 17 17 18 18 18 18 19 19 18 18 18 16 16 16 16 16 17 19 19 18 18 18 17 16 15 15 15 15 14 14 13
20 20 20 20 19 18 19 18 17 18 17 15 13 12 11 11 11 11 10 9 9 8 8 7 7 7 6 6 7 9 10 10 11 12 11 11 10 10 12 13 13 12 10 9 8 7 9 13 14 14 13 12 14 15 15 16 16 17 17 17 17 18 17 16 17 17 17 17 17 17 17 17 17 17 17 16 15 15 14 14 13 13 13 12 12
18 18 18 19 19 18 18 17 18 18 18 17 15 13 12 12 12 11 11 10 9 8 8 7 7 7 6 7 7 7 9 9 9 12 12 11 11 10 11 12 13 12 11 9 8 7 7 9 11 12 12 11 12 13 14 14 15 15 15 16 16 16 16 14 14 15 15 15 15 16 16 16 16 15 15 15 14 14 13 12 12 12 11 11 10
16 16 16 18 20 20 18 17 18 18 18 18 17 15 13 13 13 13 11 10 9 8 8 7 7 8 7 8 7 7 7 5 5 10 12 12 11 10 11 12 14 14 12 11 9 8 7 7 8 9 10 11 11 12 13 14 14 14 14 14 14 15 14 14 14 14 14 14 14 15 14 15 15 14 14 13 13 12 12 11 11 10 10 9 9
15 16 15 16 19 19 18 17 18 17 18 19 19 17 15 15 14 13 12 10 9 8 8 8 8 8 8 9 8 8 7 4 2 6 9 11 11 10 11 12 14 15 14 13 11 10 8 6 7 7 8 9 10 11 12 13 14 14 14 14 14 14 14 14 15 15 14 14 14 14 13 13 13 13 12 12 12 12 11 10 10 9 9 9 9
15 16 15 15 16 16 17 18 19 18 18 18 19 19 17 16 15 14 13 11 10 9 9 9 9 9 9 9 8 9 9 7 5 4 6 9 11 11 11 11 13 16 16 15 13 12 10 8 7 7 7 8 9 11 11 12 13 13 14 14 14 14 14 14 14 14 14 14 13 13 12 12 11 11 11 11 12 11 10 10 9 8 8 8 8
16 16 14 14 15 16 17 18 20 20 19 19 19 20 18 17 16 15 14 13 12 11 11 10 10 10 9 8 8 9 9 9 8 6 5 6 9 10 11 12 13 16 18 17 15 14 12 9 7 8 8 7 8 9 10 10 11 12 13 14 14 14 14 14 14 14 14 13 12 12 11 11 10 10 10 10 10 10 10 9 9 8 8 8 8
17 17 16 15 15 16 17 18 20 20 20 20 20 20 19 17 16 16 15 15 14 13 12 11 10 10 9 8 8 9 9 9 9 9 7 6 7 9 10 12 13 15 18 19 18 16 14 11 9 8 8 8 7 8 8 8 9 11 12 13 14 14 15 15 14 14 13 12 11 11 10 9 9 9 9 9 9 9 9 9 9 8 8 8 8
19 18 18 18 16 15 17 18 19 20 20 21 21 21 20 18 17 17 16 15 15 14 13 12 10 9 8 8 8 8 9 10 11 11 9 7 7 7 8 10 12 14 18 21 20 18 16 14 11 9 9 9 8 7 7 7 8 9 10 11 12 13 14 14 14 13 12 12 11 10 9 8 8 8 8 8 8 8 9 9 9 8 8 8 7
19 18 18 19 17 16 17 17 18 19 20 21 21 21 21 19 19 18 17 16 15 14 13 12 11 10 9 8 9 9 10 10 11 12 10 8 7 7 7 9 11 13 17 22 23 21 19 16 13 11 10 9 9 7 6 6 6 7 9 10 11 12 13 13 13 12 11 10 10 9 7 7 7 7 8 8 8 7 8 8 9 8 8 8 8
20 19 18 19 17 16 17 17 17 17 18 20 20 20 20 20 19 18 18 16 15 14 13 12 11 11 11 10 10 10 10 11 12 12 11 10 8 7 7 8 10 12 16 21 24 22 20 18 15 13 11 10 9 8 6 5 5 6 7 8 9 10 11 11 11 11 10 9 9 8 7 6 5 6 7 8 8 8 8 8 9 9 9 9 9
20 20 19 18 16 16 17 16 16 16 17 19 18 17 17 18 18 17 17 16 14 13 13 13 12 12 11 10 10 10 11 12 12 13 12 11 9 9 9 8 10 12 15 19 23 23 21 19 16 14 12 10 9 8 6 5 5 5 6 7 8 9 10 10 10 9 8 8 8 7 6 5 5 6 7 8 9 9 9 9 9 9 9 9 9
17 19 18 17 16 16 16 16 15 16 16 16 16 15 16 16 15 15 15 14 14 13 13 13 12 11 11 11 10 10 11 12 13 13 13 12 10 9 10 11 12 13 14 17 21 23 22 20 17 15 12 10 9 7 6 5 4 5 6 6 7 7 8 8 8 8 8 8 7 6 5 5 5 6 8 9 10 10 11 10 10 9 10 9 9
15 17 18 16 16 15 15 14 14 15 14 14 14 15 15 15 14 14 14 14 13 13 13 13 12 12 11 11 11 11 11 12 13 13 12 11 10 9 10 11 13 15 16 16 19 22 23 21 19 16 14 11 9 7 6 5 4 5 6 6 6 6 6 6 8 8 8 7 6 5 4 5 7 9 10 11 11 11 11 11 10 10 10 9 9
14 16 17 16 15 15 14 13 14 14 14 14 13 13 14 13 13 13 13 13 13 14 14 13 13 12 11 11 11 11 11 12 13 13 12 11 10 10 9 11 13 16 17 16 17 21 23 22 20 18 15 13 10 8 7 5 4 4 5 4 4 5 5 6 7 7 6 6 5 4 4 4 8 11 12 13 12 12 11 10 9 9 9 8 8
12 16 17 16 14 14 13 12 13 13 14 14 13 12 12 12 12 13 13 13 14 14 14 13 13 12 11 11 12 12 12 12 13 12 12 11 11 10 10 10 11 15 18 18 17 19 22 23 22 20 17 15 12 10 8 6 4 4 4 3 2 3 3 5 5 5 5 5 4 4 3 4 6 11 14 14 12 9 7 7 7 8 8 7 7
11 15 16 15 14 12 11 11 12 13 14 14 13 12 12 12 13 13 13 13 13 14 14 14 14 13 12 12 13 13 13 13 13 13 12 12 11 11 10 10 10 13 17 19 19 18 20 23 24 21 19 17 14 12 9 7 4 4 3 2 1 1 2 3 4 4 4 4 3 3 3 4 5 8 13 13 10 7 5 4 5 5 5 5 5
11 14 14 14 13 12 12 11 13 14 14 14 13 12 12 12 12 13 13 14 13 13 13 13 13 13 12 13 14 14 14 13 13 13 13 13 12 11 11 11 11 12 15 19 21 19 19 21 24 23 21 19 16 14 11 8 6 4 3 2 1 0 1 2 3 3 3 3 3 3 4 5 5 5 9 11 9 7 6 4 4 3 3 3 3
11 13 13 13 13 12 12 13 14 15 15 14 13 12 11 11 11 12 13 13 13 13 13 13 13 13 13 13 14 14 14 14 15 14 14 13 13 13 13 12 12 13 14 18 21 21 19 20 22 23 21 20 18 15 12 9 7 5 4 2 2 1 1 1 1 2 2 2 3 4 5 7 7 5 6 7 7 7 6 4 4 3 3 3 2
12 13 13 14 14 13 13 14 15 16 15 15 13 12 11 12 12 12 13 13 13 13 13 13 13 13 13 14 14 14 14 14 15 16 15 15 14 14 14 13 12 13 14 17 21 22 21 20 21 23 22 20 18 16 12 10 8 7 5 4 2 2 2 1 1 2 2 2 4 5 6 7 7 6 6 5 5 7 6 3 3 2 2 2 1
12 13 14 15 15 15 15 15 16 17 16 15 15 13 13 13 13 13 13 13 13 12 12 13 13 13 13 14 14 14 14 15 15 16 17 16 15 15 15 15 14 13 14 15 20 23 23 22 21 22 22 21 20 16 13 11 10 8 7 5 4 3 3 3 4 4 3 3 5 5 5 6 6 7 7 6 6 6 5 3 2 1 1 2 2
13 14 15 16 15 15 15 16 17 17 17 17 17 15 15 15 15 15 14 14 14 13 13 12 12 12 13 14 13 13 14 15 16 17 17 17 17 17 17 17 16 15 14 14 18 23 25 23 21 21 22 22 20 17 15 13 11 10 9 6 5 5 4 4 5 6 5 5 6 5 5 6 6 6 7 6 5 4 4 3 2 2 1 1 2
15 15 16 17 17 15 15 16 17 16 17 18 18 17 17 17 17 17 16 16 15 15 14 13 13 13 14 14 13 13 14 16 17 17 17 17 18 19 18 18 17 16 16 15 17 22 25 23 21 22 23 22 19 16 16 15 13 12 11 8 7 6 5 6 7 7 7 8 7 6 7 6 6 6 6 6 5 4 3 3 2 2 2 1 1
17 17 17 17 18 18 17 17 17 16 16 17 18 19 19 19 19 18 19 18 16 16 15 15 15 14 15 14 14 14 15 16 17 17 18 18 19 19 19 19 19 19 18 17 18 23 25 24 23 23 23 22 19 17 16 15 14 14 12 10 8 7 7 8 9 9 10 9 8 8 8 7 6 6 6 6 5 3 3 3 2 3 2 2 2
18 18 16 16 18 19 19 19 18 18 17 16 17 18 18 19 20 21 21 19 18 18 17 17 16 16 17 16 15 15 16 17 17 18 18 18 19 20 19 20 21 21 21 19 20 22 24 25 25 24 22 22 21 19 16 15 14 14 13 12 10 9 9 10 10 11 11 11 9 9 8 7 7 7 6 6 4 3 3 3 3 3 3 3 3
18 16 14 14 15 17 18 18 17 16 16 14 14 16 16 17 20 20 20 19 20 20 19 17 18 18 18 18 17 16 17 18 18 18 18 18 19 20 20 21 22 23 22 22 22 21 22 24 24 24 23 22 23 22 19 16 15 15 14 12 12 10 10 11 11 12 13 12 11 10 9 9 7 7 7 6 5 4 4 4 3 3 4 4 3
17 15 13 13 13 15 16 16 15 14 14 13 11 11 12 13 16 17 17 17 19 20 19 17 17 19 19 19 19 18 18 20 20 20 19 19 20 21 21 21 23 25 25 25 24 22 22 23 22 23 24 23 23 23 21 19 16 16 13 12 12 11 11 13 13 13 14 14 12 12 11 9 8 8 8 7 5 4 4 4 4 4 4 4 4
16 15 13 12 12 11 12 14 16 15 15 14 12 10 10 10 12 13 14 15 16 17 16 13 14 17 18 19 20 18 18 20 19 18 18 19 20 21 21 21 23 27 27 27 26 24 23 23 22 22 23 23 23 20 19 20 17 15 13 11 11 9 10 14 15 14 14 14 14 13 12 10 9 9 9 7 6 5 5 5 5 5 5 5 5
15 15 14 12 10 9 9 11 14 15 17 17 15 13 11 10 11 11 11 12 13 12 12 11 13 17 19 21 22 20 19 19 17 15 15 17 19 20 20 21 23 25 26 27 27 26 25 24 22 20 20 21 21 19 18 19 18 16 14 11 9 9 9 12 16 15 14 15 15 14 12 11 10 9 9 8 6 6 6 6 6 5 5 6 6
14 15 14 12 10 9 10 11 12 14 16 17 15 13 12 11 12 12 11 11 11 10 13 15 16 17 20 20 22 22 20 19 16 13 13 13 16 18 18 20 21 22 24 27 28 27 25 23 19 16 18 19 19 19 18 17 17 16 15 11 9 10 10 11 14 15 15 16 16 15 13 11 11 10 10 9 7 7 7 7 6 6 5 5 6
14 14 13 12 11 11 12 13 13 13 14 17 16 13 12 13 13 13 12 13 14 14 15 16 15 17 20 19 20 20 19 18 17 15 13 12 14 15 15 16 18 20 24 27 29 27 23 21 18 16 17 17 16 16 16 16 16 17 18 15 12 9 9 12 13 12 15 16 16 16 14 12 12 11 11 10 9 9 9 8 7 6 6 5 5
13 13 13 13 13 13 14 14 14 14 14 16 14 11 11 12 12 13 14 16 16 16 16 15 13 14 17 18 18 18 17 17 16 15 14 13 15 14 12 12 13 16 21 25 25 23 20 19 18 17 15 14 13 13 13 14 15 16 18 18 15 10 8 12 15 14 15 15 15 17 15 14 13 13 12 11 10 10 10 9 8 7 6 5 5
11 14 14 15 15 16 15 14 14 14 14 15 12 10 12 14 13 14 15 16 16 16 17 16 14 12 13 16 16 15 16 17 15 14 13 12 13 13 13 10 10 13 17 20 19 18 19 19 19 17 14 13 13 13 14 15 15 16 17 17 17 14 9 10 14 14 15 16 16 17 15 15 15 14 13 12 11 11 11 10 9 8 7 6 5
12 13 14 15 16 16 16 16 16 15 15 16 14 14 16 17 18 18 18 17 16 15 15 16 16 13 12 12 12 13 15 16 15 13 13 11 10 13 14 12 12 13 16 18 18 19 20 21 20 16 14 15 15 15 16 16 16 15 16 17 18 18 13 10 12 13 13 14 15 17 18 18 16 15 15 14 12 12 12 11 10 9 8 6 5
10 11 13 14 16 17 17 16 16 16 16 16 16 16 16 18 20 21 21 20 18 15 13 14 16 16 14 12 13 14 15 15 13 11 12 13 11 14 15 14 14 14 15 16 17 19 21 20 19 16 15 17 17 18 17 16 16 16 17 18 20 21 18 14 14 14 13 12 12 15 19 19 17 16 17 15 14 13 13 13 11 10 9 7 6
9 11 14 15 15 16 17 16 15 17 17 17 17 16 17 18 19 19 20 19 19 19 17 16 17 18 17 15 14 14 16 15 12 11 13 14 12 15 17 16 16 15 15 15 14 16 18 18 18 16 16 18 17 17 16 15 16 16 18 19 20 21 20 18 16 14 13 12 12 13 16 18 16 16 19 17 15 15 14 14 12 11 10 8 8
Wind_Direction
173 178 172 173 174 173 176 178 183 185 182 179 176 175 174 174 177 180 185 190 193 195 187 175 160 150 138 123 112 101 93 96 102 102 104 106 109 114 116 115 111 106 103 103 103 102 103 106 108 109 109 109 110 111 111 111 109 108 108 106 105 104 104 105 104 104 102 101 103 103 104 104 102 101 98 93 88 88 88 85 80 74 69 64 69
171 176 174 175 174 173 178 180 184 184 180 178 177 176 175 175 177 181 185 189 190 187 177 165 155 148 135 124 114 104 100 103 102 102 107 108 109 114 118 117 112 107 104 105 106 106 106 108 109 109 109 109 109 109 109 109 107 107 106 104 103 103 103 104 103 101 102 104 105 105 105 101 98 95 91 91 90 90 88 87 85 80 77 71 69
167 172 176 176 174 173 178 182 184 181 178 177 176 175 175 175 176 179 182 183 181 177 168 158 152 145 136 127 119 112 110 107 101 102 107 109 110 115 119 119 115 109 106 105 106 107 108 108 109 109 109 108 109 108 108 106 105 105 105 103 102 101 101 101 101 103 108 110 109 105 101 97 92 87 86 94 94 91 92 91 87 75 75 72 61
167 172 175 175 174 174 179 183 183 179 176 176 175 174 174 173 173 175 176 176 174 170 162 156 152 145 139 130 125 120 115 108 104 104 106 108 112 117 121 122 120 115 110 108 108 108 109 110 110 110 109 110 110 108 107 105 104 103 103 102 101 100 101 101 102 105 108 106 107 104 99 96 96 95 94 98 95 93 98 93 85 74 71 71 70
169 173 175 174 172 174 180 182 181 177 175 176 175 175 174 170 170 170 171 171 169 165 159 155 152 145 140 134 130 124 116 110 107 107 107 109 113 119 124 124 123 120 115 112 112 111 110 111 112 113 112 111 110 108 108 107 104 101 100 100 100 101 102 104 104 104 104 104 107 103 98 98 105 117 116 101 94 90 96 94 88 85 88 95 97
170 173 175 174 172 175 179 180 179 176 175 177 177 177 174 169 167 168 170 168 166 161 157 155 151 145 141 138 133 125 116 111 108 108 109 111 114 118 125 126 125 126 122 120 119 116 116 117 118 117 114 111 110 109 109 108 104 100 98 98 99 99 99 98 96 96 96 102 107 97 94 92 98 113 120 109 104 95 97 100 96 97 101 101 98
171 173 175 174 174 175 177 180 177 176 176 176 178 178 173 169 168 168 168 165 164 158 155 154 150 145 143 140 133 126 117 115 111 109 108 110 112 115 124 128 128 130 128 128 126 125 127 125 122 118 114 113 113 111 109 107 104 101 99 98 97 94 90 88 86 86 85 92 102 106 103 95 95 99 99 103 102 100 101 100 98 99 100 97 92
172 173 175 175 176 176 177 178 176 176 175 175 175 176 173 170 169 167 165 164 162 155 153 153 150 147 145 141 133 127 120 118 117 110 107 110 113 115 122 125 129 132 132 135 134 133 133 128 118 115 115 115 113 110 109 110 109 106 103 99 95 92 88 87 87 87 88 91 96 106 111 101 99 98 97 98 97 98 100 98 96 96 96 95 92
174 174 176 176 179 177 177 179 176 176 174 173 170 172 173 172 170 167 165 164 161 155 154 153 152 150 146 141 135 130 123 120 119 115 110 112 115 116 121 124 129 133 134 138 139 137 133 124 118 116 117 114 110 107 110 114 114 111 105 99 95 93 90 89 89 91 93 95 100 104 105 96 94 97 96 94 92 95 98 96 94 93 93 93 92
177 177 177 178 179 178 180 181 177 175 173 171 167 168 171 172 170 167 167 165 164 159 156 156 153 150 148 142 137 134 127 122 121 120 118 117 116 119 123 126 131 132 131 134 135 134 128 123 121 119 118 113 108 106 109 112 112 109 103 98 95 93 88 87 89 92 94 98 105 104 101 97 95 97 95 93 94 97 97 96 94 93 93 92 92
180 179 180 181 180 180 182 184 181 175 172 171 166 165 167 171 171 168 168 168 167 165 161 157 152 149 147 143 140 137 129 124 119 116 119 120 116 118 124 127 129 130 130 132 132 127 122 120 121 122 119 114 111 109 108 107 105 103 98 96 94 91 87 86 89 91 92 95 100 99 99 97 95 97 95 93 95 97 97 96 95 94 94 94 95
184 181 183 184 183 183 185 187 184 177 173 171 167 163 162 166 168 166 168 171 171 169 165 157 152 150 147 146 143 138 131 126 118 113 117 120 117 119 125 128 130 133 134 133 130 122 114 114 118 119 118 116 114 110 107 102 98 95 93 93 93 91 89 88 88 90 94 97 98 96 95 93 93 97 96 93 93 96 96 94 94 94 96 96 96
187 185 187 185 185 186 187 189 186 181 177 173 170 163 159 158 159 162 167 171 173 172 168 160 154 152 150 150 149 143 137 132 125 120 120 121 121 124 130 132 135 138 138 134 129 119 111 114 117 117 116 116 114 110 104 97 92 90 91 92 92 92 90 89 85 86 95 98 94 91 90 91 94 98 97 95 95 95 94 93 93 94 94 94 94
190 191 190 186 185 187 188 189 188 185 181 176 171 165 157 152 151 156 161 165 168 167 165 162 157 155 154 156 156 150 144 138 133 129 125 126 127 129 134 138 141 143 143 142 135 121 115 117 119 118 117 116 113 107 100 94 90 90 91 91 91 90 90 88 84 83 88 92 89 88 89 91 94 96 96 95 95 95 93 93 93 94 94 94 95
194 192 192 190 183 184 186 186 188 187 184 179 174 171 163 155 151 150 153 154 154 152 152 154 152 152 156 159 160 153 148 143 138 136 131 131 135 137 140 144 147 150 152 151 145 128 119 120 120 119 117 114 109 103 97 93 92 91 91 91 89 88 86 85 83 82 84 89 89 88 89 89 89 90 91 91 92 93 94 94 94 95 95 95 95
199 192 190 189 181 182 183 181 186 187 186 184 181 178 170 161 154 150 152 152 150 148 143 141 139 137 144 149 155 155 151 149 142 140 138 137 142 146 149 152 154 157 159 161 158 141 125 122 122 120 116 111 103 98 94 92 92 92 92 90 89 87 84 83 83 83 84 88 87 85 85 85 85 86 88 90 91 92 93 94 94 95 96 96 95
202 197 190 187 182 183 182 180 183 187 188 188 187 183 177 168 160 158 159 160 158 152 144 139 132 125 126 131 146 155 153 156 149 143 145 145 147 154 156 159 162 164 168 171 172 162 138 126 124 121 114 106 99 95 92 91 92 93 94 91 90 89 86 85 84 83 83 85 86 86 86 86 86 88 90 91 91 92 91 92 92 94 95 96 95
198 198 194 190 188 187 182 181 184 187 190 189 189 186 183 176 170 170 167 167 163 154 147 141 134 127 125 126 138 150 154 162 157 149 149 149 153 159 163 167 168 171 176 183 187 183 163 138 128 124 115 105 98 95 91 90 92 93 95 95 93 91 89 86 84 83 84 84 85 86 88 89 89 90 91 92 92 91 91 93 95 95 95 94 93
194 190 190 190 192 193 184 182 184 186 189 189 189 188 187 184 180 179 174 170 166 157 150 144 139 136 133 132 131 131 146 160 156 155 152 151 156 162 168 171 174 178 183 191 197 198 190 158 137 127 117 109 102 98 94 90 90 91 93 94 94 92 90 86 81 80 81 82 82 84 88 90 91 91 91 92 92 91 92 93 94 95 95 95 94
192 187 189 189 193 195 188 185 185 186 189 190 190 190 190 190 187 184 181 177 172 168 160 153 149 144 142 140 131 133 155 174 158 159 156 155 157 163 171 174 178 183 188 196 202 206 206 181 151 135 122 116 111 104 99 92 89 89 89 89 90 90 89 87 83 79 79 80 82 84 87 89 91 91 91 91 90 92 91 90 89 90 93 94 94
191 187 189 189 189 192 191 192 191 188 189 191 193 194 194 194 192 188 186 185 182 181 175 167 161 157 152 145 143 154 171 181 175 176 167 163 160 161 170 174 180 186 191 198 205 211 212 199 167 146 136 127 119 113 107 98 92 89 87 86 84 85 86 86 86 84 81 82 84 85 86 88 89 90 90 89 90 92 93 93 92 90 90 91 92
188 186 187 187 188 192 194 198 197 194 191 192 194 196 196 195 195 192 190 190 190 189 185 179 174 170 164 157 163 171 179 182 183 195 193 178 170 165 169 174 181 186 192 198 205 212 215 208 184 158 149 141 127 118 115 107 99 93 88 85 83 82 82 83 85 86 85 85 87 88 87 87 87 89 88 87 89 92 94 95 95 93 91 89 87
187 188 188 190 191 195 197 198 200 199 196 196 196 196 196 194 195 195 194 194 194 194 190 188 184 180 175 171 176 179 184 187 189 197 202 199 190 176 172 175 181 186 192 198 204 212 216 211 197 173 159 150 138 127 122 117 105 96 91 87 84 82 81 81 82 83 85 84 85 87 89 90 88 89 90 91 94 96 98 101 100 98 95 90 88
192 192 195 197 193 198 201 198 201 203 201 201 199 199 198 197 198 198 196 195 194 195 194 193 191 189 187 185 188 190 193 195 196 199 201 205 206 192 181 179 183 186 190 197 203 210 216 213 203 185 170 158 149 144 135 126 112 100 94 89 85 83 81 80 79 78 79 79 79 82 86 88 91 94 96 97 100 104 105 106 105 102 98 94 92
193 193 197 200 197 199 202 198 201 203 203 204 203 202 200 200 201 201 199 197 198 197 196 197 196 196 198 198 199 202 205 205 204 203 198 200 210 206 195 189 190 191 192 196 201 207 213 213 207 194 181 166 156 157 152 134 117 106 98 90 85 82 80 79 76 73 72 72 73 75 78 82 91 100 104 106 106 108 108 106 105 102 100 96 94
195 195 196 202 204 202 201 200 201 202 203 204 204 204 203 203 203 203 203 202 201 199 198 199 200 201 200 203 203 205 211 210 209 207 200 198 207 209 206 202 198 199 197 197 199 204 211 214 211 202 193 179 167 168 165 143 119 110 101 90 83 81 79 75 71 68 66 66 68 70 75 81 92 104 112 118 117 114 110 107 105 102 101 97 95
200 200 199 202 208 208 202 199 199 200 202 203 204 205 206 208 206 206 207 206 203 204 205 202 204 205 203 209 208 209 214 212 211 209 205 204 208 210 213 213 205 205 205 200 199 203 209 214 215 210 203 193 182 178 175 153 125 113 103 92 85 80 77 72 66 63 63 62 64 67 72 88 104 116 123 123 120 117 114 110 108 106 104 100 96
207 206 204 205 208 210 203 198 199 199 201 203 204 205 207 211 209 210 211 210 208 208 209 208 207 204 204 211 211 211 215 215 214 212 211 211 212 213 216 217 211 208 210 206 202 203 207 213 216 215 211 204 195 187 182 166 140 125 110 101 93 85 77 69 63 60 61 59 57 61 71 99 121 127 129 125 119 116 113 111 110 107 105 102 99
216 208 206 207 207 208 200 197 201 200 203 206 206 207 210 211 209 212 217 215 212 211 212 211 206 201 206 211 210 212 215 218 219 217 218 219 221 221 218 215 210 207 210 210 206 205 206 211 215 217 216 213 206 198 190 180 163 139 119 109 102 97 84 65 57 59 62 58 55 58 73 111 135 134 127 123 118 114 110 109 108 107 105 103 101
220 210 205 207 211 212 204 201 205 208 212 213 211 211 212 213 209 214 220 218 217 216 215 213 208 207 211 210 212 216 216 220 221 222 227 227 226 226 220 213 208 206 208 211 210 208 208 210 215 217 218 217 213 209 205 195 179 153 129 116 108 101 86 61 53 57 60 59 60 63 81 126 149 143 130 122 117 110 106 104 104 104 103 101 99
223 212 207 208 213 218 215 211 213 218 221 220 217 214 214 215 212 215 219 219 221 219 217 216 214 213 214 214 217 219 218 221 223 225 230 232 230 226 222 217 212 207 208 212 213 211 210 212 215 217 218 219 217 215 214 206 193 170 147 136 125 97 75 58 53 60 61 60 66 78 110 141 153 147 137 128 121 113 106 104 103 105 103 99 98
227 214 211 211 212 215 215 215 218 224 226 224 222 220 224 225 220 218 220 221 222 221 220 219 217 217 219 221 223 224 224 226 227 228 227 229 230 229 227 226 222 212 210 213 214 214 212 212 214 216 218 218 219 220 217 210 200 183 170 182 186 101 61 58 56 66 68 65 77 105 138 137 129 142 144 139 131 129 130 125 120 115 104 100 100
232 219 217 218 218 215 210 213 220 225 228 229 230 233 235 236 232 230 229 228 226 225 224 223 222 223 224 225 226 227 229 230 231 230 228 227 228 231 231 230 227 219 215 214 216 217 215 213 213 214 215 216 219 221 219 214 206 196 185 193 212 262 28 54 62 76 77 82 105 123 134 128 117 130 147 148 142 144 153 153 153 152 141 136 115
234 226 225 227 228 224 217 219 224 229 232 233 237 239 240 241 240 239 238 236 232 228 227 226 227 227 228 228 228 228 231 232 232 232 231 228 226 228 231 231 227 223 222 219 217 219 218 215 213 213 214 213 216 219 220 220 219 218 217 221 236 255 275 35 87 110 108 117 130 129 130 132 135 139 147 151 152 154 160 164 166 173 171 165 146
235 232 235 236 236 235 231 230 231 234 236 239 240 240 243 246 246 246 246 245 242 238 233 229 228 229 230 229 230 231 234 235 235 236 235 232 229 229 230 231 229 228 230 225 218 219 219 216 214 213 213 211 214 216 216 220 226 232 238 242 243 241 240 227 178 161 158 157 143 133 133 135 143 154 151 158 173 164 162 169 168 174 170 166 188
235 235 240 243 244 242 240 240 240 240 240 243 245 244 246 248 251 252 253 253 252 250 244 238 233 232 232 232 232 233 236 235 235 237 237 236 234 232 231 231 229 230 235 231 220 218 219 218 216 214 213 214 215 215 218 222 227 233 240 244 237 230 229 215 198 190 187 179 158 144 147 149 155 164 159 166 183 172 167 172 168 178 174 162 178
241 241 243 246 250 248 246 246 247 247 245 247 249 248 248 250 254 257 256 256 256 256 254 251 246 241 240 238 235 233 235 234 234 237 238 239 239 237 236 234 230 230 235 235 223 217 217 217 216 214 215 218 218 217 220 225 227 229 236 241 236 232 229 217 205 196 194 191 175 163 167 169 169 168 163 171 181 178 177 173 177 205 214 189 162
251 251 250 251 253 254 254 253 253 254 253 255 255 253 251 250 254 257 258 257 256 256 255 255 255 254 253 248 242 238 236 236 237 241 241 240 242 240 238 235 233 231 232 233 223 216 216 216 215 215 214 217 219 220 222 227 229 229 233 236 232 234 230 220 213 204 196 192 186 181 178 179 179 172 172 178 180 182 182 175 178 189 201 202 160
260 261 262 261 259 259 260 261 260 260 259 258 257 256 255 254 255 257 260 260 259 259 259 257 257 257 260 257 251 247 243 242 244 245 244 242 243 242 238 234 233 232 231 229 222 215 214 214 214 214 214 215 218 221 223 227 229 227 229 229 225 229 232 224 215 207 199 192 190 190 186 185 187 182 182 181 177 179 179 174 174 174 185 183 158
264 267 270 272 270 267 266 268 267 266 264 260 255 253 253 254 257 256 257 259 257 258 259 261 261 258 259 260 257 255 253 250 250 248 246 244 245 245 239 233 232 232 229 225 220 216 214 215 215 215 215 216 218 220 220 220 225 225 225 228 225 224 231 228 216 208 201 193 191 193 192 196 195 189 189 183 178 181 168 160 164 172 175 166 158
269 273 277 284 284 280 277 275 274 272 271 267 262 260 256 253 255 257 257 260 261 260 259 261 263 259 258 261 261 262 263 261 259 255 251 249 250 249 242 234 234 234 228 222 219 216 216 216 216 216 217 217 220 222 220 217 218 219 220 224 222 216 220 224 221 214 201 193 194 196 198 203 201 194 194 189 182 175 158 146 150 159 159 151 145
274 279 286 292 292 291 287 283 280 282 285 282 277 275 268 257 256 261 263 264 268 272 273 269 267 266 264 267 270 269 267 266 264 261 258 256 254 252 245 236 236 235 227 219 217 214 215 216 214 215 218 219 221 220 219 217 216 219 217 216 218 211 209 214 218 213 198 192 196 198 202 206 204 199 196 192 181 170 162 152 148 149 150 145 132
278 282 289 293 294 295 295 293 291 292 294 292 289 284 274 265 263 268 272 273 278 286 287 281 282 287 283 279 279 278 273 271 270 268 264 259 256 256 252 244 239 235 226 218 215 214 215 216 214 214 216 219 222 218 216 215 215 216 210 208 215 206 199 205 208 205 195 195 199 200 205 207 202 199 196 191 184 178 174 160 153 154 151 146 134
281 286 293 296 293 287 287 293 296 296 295 293 294 294 287 281 282 285 286 287 291 296 298 299 305 307 299 289 289 291 288 283 277 272 267 260 252 252 253 250 246 242 232 220 216 215 214 217 218 216 216 220 223 219 214 214 213 210 202 201 205 198 198 202 202 201 195 194 200 201 205 206 201 197 193 191 188 187 179 164 159 161 157 152 140
287 295 306 315 313 302 293 291 291 293 294 293 296 302 301 299 299 298 293 294 297 295 297 300 299 296 291 289 292 296 294 289 284 274 269 260 250 251 252 252 249 244 236 225 218 216 214 218 222 219 220 221 220 217 215 215 216 216 213 207 197 196 202 197 195 201 198 195 199 200 205 208 202 194 191 192 191 187 179 168 166 167 163 157 140
292 299 310 323 326 317 310 306 304 303 301 299 301 308 309 306 304 300 298 301 300 295 293 289 284 285 285 286 289 290 286 284 284 280 274 262 255 256 252 248 245 238 234 227 218 213 211 217 223 222 224 221 216 219 221 218 219 222 223 220 213 208 205 194 183 185 193 199 202 202 206 209 201 194 192 192 191 187 180 174 173 172 164 155 141
295 298 300 304 305 304 304 306 309 309 310 312 313 314 311 308 301 293 297 302 300 298 294 282 277 281 284 289 290 285 281 278 277 279 275 263 257 252 238 240 241 232 228 221 213 210 210 214 217 219 227 229 223 226 228 223 222 224 224 224 221 216 215 205 189 177 180 192 203 203 204 206 201 196 193 191 191 188 184 183 180 175 169 163 153
301 301 300 298 298 301 305 311 314 310 310 313 313 303 296 295 292 288 295 303 301 295 290 287 286 281 281 290 289 280 278 274 270 271 267 261 256 236 222 227 224 212 211 209 208 212 213 211 212 215 222 225 224 227 230 226 225 226 224 222 219 212 214 209 197 191 184 183 195 201 200 201 201 198 194 190 191 189 188 190 186 179 178 177 167
307 308 311 312 313 314 314 314 315 313 310 308 307 305 299 293 291 291 295 302 300 291 289 291 289 282 280 284 281 276 276 271 265 261 256 258 250 220 213 221 212 202 203 205 207 210 208 205 210 218 221 218 218 221 225 226 226 227 224 222 218 213 214 206 196 202 198 187 193 199 198 198 198 198 195 189 191 192 191 192 188 185 186 182 173
318 316 316 319 324 327 325 318 312 309 309 306 303 304 300 295 293 294 295 296 295 289 287 288 285 281 279 279 280 280 278 271 261 253 248 253 245 213 208 217 212 206 205 206 209 208 203 204 213 224 227 222 221 221 222 225 227 227 229 229 220 214 213 206 199 202 203 199 198 197 197 196 194 193 191 188 192 193 191 194 191 190 193 186 176
326 317 316 320 324 326 324 322 315 308 306 303 301 301 299 297 297 300 301 300 299 293 287 285 284 282 281 282 283 279 276 271 256 247 248 252 242 212 205 212 212 209 209 213 220 214 203 204 215 223 227 227 225 223 223 223 224 224 229 233 226 220 217 213 210 209 209 208 201 194 194 194 192 191 188 187 192 194 192 195 195 193 194 189 181